Voltar ao catálogo

STARLINK-30281

AtivoComunicaçõesVLEO
NORAD 57716·PAYLOAD·🇺🇸 United States

Lançado Aug 27, 2023 de Cape Canaveral Space Force Station

Loading…

Próximas Passagens (próximas 24 horas)

TLE

AtualizadoSource: CelesTrak SupGP

Época: Sep 15, 2026, 01:50 UTC

1 57716C 23129U   26258.07687500  .00063884  00000+0  23149-2 0  2586
2 57716  43.0002 128.6795 0001387 272.3942  65.0497 15.27533044    19

Acompanhe STARLINK-30281 em tempo real com AllMySat

Download on the App Store